User: anonymous   Login
Location: Newark
(45.8667°N, 9.7333°E)
Time: 23:08:50
(UTC+00:00)
Language:

Tiros 1 - Orbit

View from above orbital plane
View from above orbital plane
View from above satellite
View from above satellite

Ground track
Ground track

The orbit data is extracted from the following two-line orbital elements,

1    29U 60002B   20018.19924495 -.00000144 +00000-0 +95502-5 0  9999
2    29 048.3804 302.4250 0024620 304.9327 054.9272 14.74337397196225
Epoch (UTC): 18 January 2020 04:46:54
Eccentricity: 0.0024620
inclination: 48.3804°
perigee height: 630 km
apogee height: 664 km
right ascension of ascending node: 302.4250°
argument of perigee: 304.9327°
revolutions per day: 14.74337397
mean anomaly at epoch: 54.9272°
orbit number at epoch: 19622

The dashed part of the orbit path shows where the satellite is in the earth's shadow,  

DLR